Home > Time Zones > World Clock > Weather > Russia > Ufa > Past weeks

Flag for Russia Weather past 2 weeks in Ufa, Russia

27 °F

Ice fog.

Feels Like: 23 °F
Forecast: 28 / 31 °F
Wind: 3 mph from South

Location: Ufa

Current Time: Dec 1, 2015 at 11:48:24 AM

Latest Report: Dec 1, 2015 at 11:00 AM

Visibility: 2 mi

Pressure: 30.09 "Hg

Humidity: 93%

Dew point: 25 °F

Location of UfaLocation

Historic Weather in Ufa — Graph


Ufa temperature yesterday

Maximum temperature yesterday: 25 °F (at 12:30 PM)
Minimum temperature yesterday: 10 °F (at 10:30 PM)
Average temperature yesterday: 19 °F

Past Weeks' High & Low Weather Summary

High39 °F (Nov 24, 9:30 AM)100% (Nov 24, 12:00 AM)30.36 "Hg (Nov 24, 12:00 AM)
Low1 °F (Nov 20, 6:00 AM)54% (Nov 19, 1:00 PM)29.56 "Hg (Nov 27, 3:00 PM)
Average25 °F84%30.09 "Hg
* Reported Nov 16 10:00 AM — Dec 1 10:00 AM, Ufa, Weather by CustomWeather, © 2015

Note: Actual official high and low records may vary slightly from our data, if they occured in-between our weather recording intervals... More about our weather records


Ufa weather history for previous 24 hours

Time TempWeatherWind HumidityBarometerVisibility
10:00 AM
Tue, Dec 1
25 °FIce fog.3 mph100%30.09 "Hg2 mi
9:30 AM14 °FIce fog.3 mph92%30.09 "Hg2 mi
9:00 AM14 °FIce fog.1 mph92%30.09 "Hg2 mi
8:30 AM14 °FIce fog.3 mph85%30.09 "Hg2 mi
8:00 AM12 °FIce fog.3 mph85%30.09 "Hg2 mi
7:30 AM12 °FIce fog.3 mph92%30.09 "Hg2 mi
7:00 AM12 °FIce fog.3 mph92%30.09 "Hg2 mi
5:30 AM14 °FIce fog.3 mph85%30.12 "Hg2 mi
4:30 AM10 °FIce fog.3 mph92%30.12 "Hg2 mi
4:00 AM10 °FIce fog.3 mph92%30.12 "Hg2 mi
3:30 AM10 °FIce fog.3 mph92%30.12 "Hg2 mi
3:00 AM10 °FIce fog.3 mph85%30.12 "Hg1 mi
2:30 AM10 °FSleet. Overcast.3 mph85%30.15 "Hg1 mi
2:00 AM12 °FCold.3 mph85%30.15 "Hg1 mi
1:30 AM12 °FIce fog.1 mph85%30.15 "Hg1 mi
1:00 AM10 °FIce fog.3 mph92%30.15 "Hg1 mi
12:30 AM12 °FIce fog.3 mph92%30.15 "Hg0 mi
12:00 AM12 °FCold.1 mph85%30.18 "Hg1 mi
11:30 PM
Mon, Nov 30
10 °FSleet. Overcast.1 mph92%30.18 "Hg0 mi
11:00 PM10 °FIce fog.1 mph92%30.18 "Hg0 mi
10:30 PM10 °FCold.No wind92%30.18 "Hg0 mi
10:00 PM14 °FSleet. Overcast.1 mph85%30.18 "Hg0 mi
9:30 PM16 °FCold.No wind93%30.18 "Hg1 mi
9:00 PM18 °FIce fog.1 mph93%30.18 "Hg0 mi
8:30 PM18 °FSleet. Overcast.3 mph86%30.21 "Hg0 mi
8:00 PM18 °FIce fog.1 mph93%30.21 "Hg0 mi
7:30 PM16 °FIce fog.1 mph93%30.21 "Hg0 mi
7:00 PM18 °FCold.1 mph93%30.21 "Hg0 mi
6:30 PM18 °FCold.1 mph93%30.21 "Hg0 mi
6:00 PM19 °FSleet. Cloudy.3 mph93%30.21 "Hg1 mi
5:30 PM21 °FSleet. Cloudy.3 mph93%30.21 "Hg0 mi
5:00 PM25 °FIce fog.3 mph93%30.24 "Hg1 mi
4:30 PM25 °FIce fog.1 mph93%30.24 "Hg1 mi
4:00 PM25 °FIce fog.3 mph93%30.24 "Hg2 mi
3:30 PM25 °FIce fog.1 mph93%30.24 "Hg2 mi
3:00 PM25 °FIce fog.1 mph93%30.24 "Hg2 mi
2:30 PM25 °FIce fog.1 mph93%30.24 "Hg2 mi
2:00 PM25 °FIce fog.1 mph100%30.24 "Hg2 mi
1:30 PM25 °FIce fog.1 mph93%30.24 "Hg2 mi
1:00 PM25 °FIce fog.3 mph93%30.24 "Hg2 mi
12:30 PM25 °FIce fog.3 mph93%30.27 "Hg2 mi
12:00 PM23 °FIce fog.3 mph100%30.27 "Hg2 mi
11:30 AM23 °FIce fog.1 mph93%30.27 "Hg2 mi
11:00 AM21 °FIce fog.1 mph100%30.27 "Hg2 mi
Weather by CustomWeather, © 2015

See weather overviewHow to use our weather pages